Cordova, AK

8:01 AM AKDT on April 19, 2018 (GMT -0800)
Cordova-Smith

Weather History for PACV - February, 2014

Change the Weather History Date:

Thursday, February 20, 2014

  Actual Average Record
Temperature  
Mean Temperature 22 °F -  
Max Temperature 33 °F 35 °F 49 °F (1977)
Min Temperature 10 °F 21 °F -12 °F (1956)
Degree Days  
Heating Degree Days 44    
Moisture  
Dew Point 16 °F    
Average Humidity 84    
Maximum Humidity 93    
Minimum Humidity 61    
Precipitation  
Precipitation 0.01 in - - ()
Snow  
Snow 0.00 in - - ()
Snow Depth 21.00 in    
Sea Level Pressure  
Sea Level Pressure 29.86 in    
Wind  
Wind Speed 2 mph (ENE)    
Max Wind Speed 6 mph    
Max Gust Speed -    
Visibility 8 miles    
Events Snow    
Averages and records for this station are not official NWS values.
T = Trace of Precipitation, MM = Missing Value Source: NWS Daily Summary

Daily Weather History Graph

Daily Weather History Graph

Search for Another Location

Airport or City:

Astronomy

Feb. 20, 2014 Rise Set
Actual Time 8:06 AM AKST 5:45 PM AKST
Civil Twilight 7:23 AM AKST 6:29 PM AKST
Nautical Twilight 6:34 AM AKST 7:18 PM AKST
Astronomical Twilight 5:45 AM AKST 8:07 PM AKST
Moon 12:16 AM AKST (2/20) 9:20 AM AKST (2/20)
Length of Visible Light 11h 05m
Length of Day
9h 38m
Waning Gibbous, 69% of the Moon is Illuminated
Feb 20
Waning Gibbous
Feb 22
Last Quarter
Feb 28
New
Mar 8
First Quarter
Mar 16
Full

Hourly Weather History & Observations

Time (AKST) Temp. Windchill Dew Point Humidity Pressure Visibility Wind Dir Wind Speed Gust Speed Precip Events Conditions
12:53 AM 16.0 °F - 12.9 °F 88% 29.67 in 10.0 mi Calm Calm - N/A   Partly Cloudy
1:53 AM 16.0 °F 10.4 °F 12.0 °F 84% 29.70 in 9.0 mi East 3.5 mph - N/A   Mostly Cloudy
2:03 AM 19.4 °F 12.8 °F 15.8 °F 86% 29.70 in 2.5 mi ESE 4.6 mph - 0.00 in Snow Light Snow
2:12 AM 19.4 °F - 17.6 °F 93% 29.70 in 1.0 mi Calm Calm - 0.01 in Snow Light Snow
2:18 AM 19.4 °F 12.8 °F 17.6 °F 93% 29.71 in 2.0 mi ESE 4.6 mph - 0.01 in Snow Light Snow
2:25 AM 19.4 °F 14.3 °F 17.6 °F 93% 29.71 in 9.0 mi ENE 3.5 mph - 0.01 in Snow Light Snow
2:36 AM 21.2 °F 13.6 °F 19.4 °F 93% 29.71 in 10.0 mi ENE 5.8 mph - 0.01 in   Mostly Cloudy
2:53 AM 21.9 °F 14.5 °F 19.0 °F 89% 29.71 in 10.0 mi NE 5.8 mph - 0.01 in   Partly Cloudy
3:53 AM 16.0 °F - 12.9 °F 88% 29.73 in 10.0 mi Calm Calm - N/A   Scattered Clouds
4:53 AM 15.1 °F - 10.9 °F 84% 29.73 in 10.0 mi Calm Calm - N/A   Partly Cloudy
5:53 AM 15.1 °F - 12.0 °F 88% 29.74 in 10.0 mi Calm Calm - N/A   Scattered Clouds
6:53 AM 18.0 °F - 15.1 °F 88% 29.76 in 10.0 mi Calm Calm - N/A   Mostly Cloudy
7:53 AM 18.0 °F - 15.1 °F 88% 29.78 in 10.0 mi Calm Calm - N/A   Overcast
8:53 AM 19.0 °F - 16.0 °F 88% 29.80 in 10.0 mi Calm Calm - N/A   Overcast
9:09 AM 21.2 °F 16.4 °F 17.6 °F 86% 29.82 in 1.8 mi Variable 3.5 mph - 0.00 in Snow Light Snow
9:30 AM 19.4 °F 14.3 °F 17.6 °F 93% 29.83 in 2.5 mi North 3.5 mph - 0.00 in Snow Light Snow
9:43 AM 21.2 °F - 17.6 °F 86% 29.83 in 6.0 mi Calm Calm - 0.00 in Snow Light Snow
9:53 AM 21.9 °F 15.7 °F 19.0 °F 89% 29.83 in 9.0 mi North 4.6 mph - 0.00 in   Overcast
10:02 AM 23.0 °F - 19.4 °F 86% 29.84 in 9.0 mi Calm Calm - 0.00 in Snow Light Snow
10:53 AM 23.0 °F - 21.0 °F 92% 29.86 in 10.0 mi Calm Calm - 0.00 in   Overcast
11:53 AM 28.0 °F 22.8 °F 21.0 °F 75% 29.88 in 10.0 mi East 4.6 mph - N/A   Mostly Cloudy
12:53 PM 32.0 °F - 21.9 °F 66% 29.91 in 10.0 mi Calm Calm - N/A   Mostly Cloudy
1:53 PM 33.1 °F - 21.9 °F 64% 29.94 in 10.0 mi Calm Calm - N/A   Mostly Cloudy
2:53 PM 30.0 °F 26.5 °F 21.0 °F 69% 29.96 in 10.0 mi West 3.5 mph - N/A   Mostly Cloudy
3:53 PM 28.0 °F 22.8 °F 16.0 °F 61% 29.98 in 10.0 mi South 4.6 mph - N/A   Mostly Cloudy
4:53 PM 28.9 °F - 18.0 °F 64% 29.99 in 10.0 mi Calm Calm - N/A   Scattered Clouds
5:53 PM 24.1 °F - 17.1 °F 75% 30.02 in 10.0 mi Calm Calm - N/A   Scattered Clouds
6:53 PM 19.9 °F - 17.1 °F 89% 30.04 in 10.0 mi Calm Calm - N/A   Partly Cloudy
7:53 PM 16.0 °F - 12.9 °F 88% 30.06 in 8.0 mi Calm Calm - N/A   Partly Cloudy
8:53 PM 15.1 °F - 12.0 °F 88% 30.08 in 10.0 mi Calm Calm - N/A   Clear
9:53 PM 12.9 °F - 9.0 °F 84% 30.09 in 10.0 mi Calm Calm - N/A   Clear
10:53 PM 10.9 °F - 7.0 °F 84% 30.11 in 10.0 mi Calm Calm - N/A   Clear
11:53 PM 10.0 °F - 6.1 °F 84% 30.13 in 10.0 mi Calm Calm - N/A   Clear